Joliet, IL

12:29 PM CST on January 16, 2018 (GMT -0600)
Joliet Regional

Weather History for KJOT - November, 2013

Change the Weather History Date:

Saturday, November 9, 2013

  Actual Average (KARR) Record (KARR)
Temperature  
Mean Temperature 50 °F -  
Max Temperature 58 °F 48 °F 74 °F (1999)
Min Temperature 40 °F 30 °F 15 °F (2003)
Degree Days  
Heating Degree Days 16    
Moisture  
Dew Point 35 °F    
Average Humidity 58    
Maximum Humidity 71    
Minimum Humidity 41    
Precipitation  
Precipitation 0.00 in - - ()
Sea Level Pressure  
Sea Level Pressure 29.97 in    
Wind  
Wind Speed 14 mph (WSW)    
Max Wind Speed 21 mph    
Max Gust Speed 29 mph    
Visibility 10 miles    
Events      
Averages and records for this station are not official NWS values.
T = Trace of Precipitation, MM = Missing Value Source: NWS Daily Summary

Daily Weather History Graph

Daily Weather History Graph

Search for Another Location

Airport or City:

Trip Planner

Search our weather history database for the weather conditions in past years. The results will help you decide how hot, cold, wet, or windy it might be!

Date:

Astronomy

Nov. 09, 2013 Rise Set
Actual Time 6:34 AM CST 4:38 PM CST
Civil Twilight 6:05 AM CST 5:07 PM CST
Nautical Twilight 5:31 AM CST 5:40 PM CST
Astronomical Twilight 4:59 AM CST 6:13 PM CST
Moon 12:10 PM CST (11/9) 11:09 PM CST (11/9)
Length of Visible Light 11h 02m
Length of Day
10h 03m
Waxing Crescent, 44% of the Moon is Illuminated
Nov 9
Waxing Crescent
Nov 9
First Quarter
Nov 17
Full
Nov 25
Last Quarter
Dec 2
New

Hourly Weather History & Observations

Time (CST) Temp. Windchill Dew Point Humidity Pressure Visibility Wind Dir Wind Speed Gust Speed Precip Events Conditions
12:15 AM 46.4 °F 38.7 °F 31.5 °F 56% 29.97 in 10.0 mi SSW 20.7 mph 28.8 mph N/A   Clear
12:35 AM 46.0 °F 39.6 °F 31.8 °F 58% 29.96 in 10.0 mi SSW 15.0 mph 27.6 mph N/A   Clear
12:55 AM 46.4 °F 39.5 °F 32.0 °F 57% 29.94 in 10.0 mi South 17.3 mph 26.5 mph N/A   Clear
1:15 AM 46.4 °F 40.7 °F 32.0 °F 57% 29.94 in 10.0 mi SSW 12.7 mph 26.5 mph N/A   Clear
1:35 AM 46.9 °F - 32.0 °F 56% 29.93 in 10.0 mi SSW 15.0 mph 28.8 mph N/A   Clear
1:55 AM 46.6 °F - 32.0 °F 57% 29.92 in 10.0 mi SSW 16.1 mph 27.6 mph N/A   Clear
2:15 AM 46.6 °F - 32.4 °F 58% 29.92 in 10.0 mi SSW 12.7 mph 24.2 mph N/A   Clear
2:35 AM 45.9 °F 41.2 °F 32.9 °F 61% 29.91 in 10.0 mi SSW 9.2 mph 23.0 mph N/A   Clear
2:55 AM 45.9 °F 39.7 °F 33.8 °F 63% 29.91 in 10.0 mi SW 13.8 mph 21.9 mph N/A   Clear
3:15 AM 46.4 °F 41.1 °F 33.8 °F 62% 29.90 in 10.0 mi SSW 11.5 mph 23.0 mph N/A   Clear
3:35 AM 46.4 °F 40.1 °F 33.8 °F 62% 29.91 in 10.0 mi SW 15.0 mph 21.9 mph N/A   Clear
3:55 AM 46.6 °F - 34.0 °F 62% 29.90 in 10.0 mi SW 17.3 mph 24.2 mph N/A   Clear
4:15 AM 46.0 °F 39.6 °F 34.0 °F 63% 29.89 in 10.0 mi SSW 15.0 mph 23.0 mph N/A   Clear
4:35 AM 45.7 °F 39.5 °F 34.3 °F 65% 29.90 in 10.0 mi SW 13.8 mph 23.0 mph N/A   Clear
4:55 AM 45.3 °F 39.3 °F 34.7 °F 66% 29.89 in 10.0 mi SW 12.7 mph 19.6 mph N/A   Clear
5:15 AM 44.8 °F 38.7 °F 34.7 °F 68% 29.90 in 10.0 mi SW 12.7 mph 17.3 mph N/A   Clear
5:35 AM 44.6 °F 39.7 °F 34.9 °F 69% 29.90 in 10.0 mi SSW 9.2 mph - N/A   Clear
5:55 AM 44.6 °F 39.2 °F 35.2 °F 70% 29.90 in 10.0 mi SW 10.4 mph 17.3 mph N/A   Clear
6:15 AM 45.0 °F 39.7 °F 35.6 °F 70% 29.90 in 10.0 mi SW 10.4 mph 20.7 mph N/A   Clear
6:35 AM 44.8 °F 39.4 °F 35.8 °F 71% 29.90 in 10.0 mi SW 10.4 mph 16.1 mph N/A   Clear
6:55 AM 45.0 °F 39.7 °F 36.1 °F 71% 29.91 in 10.0 mi SW 10.4 mph - N/A   Clear
7:15 AM 45.9 °F 41.2 °F 36.5 °F 70% 29.91 in 10.0 mi SW 9.2 mph - N/A   Clear
7:35 AM 46.4 °F 41.5 °F 36.7 °F 69% 29.92 in 10.0 mi WSW 10.4 mph - N/A   Clear
7:55 AM 47.3 °F - 36.7 °F 67% 29.92 in 10.0 mi SW 10.4 mph 17.3 mph N/A   Clear
8:15 AM 46.9 °F - 36.9 °F 68% 29.92 in 10.0 mi SW 10.4 mph 17.3 mph N/A   Clear
8:35 AM 48.6 °F - 37.4 °F 65% 29.92 in 10.0 mi SW 10.4 mph 17.3 mph N/A   Clear
8:55 AM 50.0 °F - 37.4 °F 62% 29.92 in 10.0 mi WSW 12.7 mph 21.9 mph N/A   Clear
9:15 AM 51.3 °F - 37.6 °F 60% 29.92 in 10.0 mi WSW 11.5 mph 24.2 mph N/A   Clear
9:35 AM 52.0 °F - 38.3 °F 60% 29.93 in 10.0 mi WSW 11.5 mph 19.6 mph N/A   Clear
9:55 AM 53.8 °F - 37.9 °F 55% 29.93 in 10.0 mi WSW 12.7 mph 25.3 mph N/A   Clear
10:15 AM 54.7 °F - 37.0 °F 51% 29.93 in 10.0 mi WSW 16.1 mph 21.9 mph N/A   Clear
10:35 AM 55.4 °F - 37.2 °F 50% 29.94 in 10.0 mi West 15.0 mph 23.0 mph N/A   Clear
10:55 AM 55.9 °F - 37.0 °F 49% 29.94 in 10.0 mi WSW 16.1 mph 25.3 mph N/A   Clear
11:15 AM 56.5 °F - 36.9 °F 48% 29.93 in 10.0 mi WSW 17.3 mph 24.2 mph N/A   Clear
11:35 AM 57.9 °F - 37.8 °F 47% 29.93 in 10.0 mi WSW 13.8 mph 19.6 mph N/A   Clear
11:55 AM 58.1 °F - 36.9 °F 45% 29.92 in 10.0 mi WSW 16.1 mph 23.0 mph N/A   Clear
12:15 PM 58.1 °F - 36.5 °F 44% 29.92 in 10.0 mi West 17.3 mph 25.3 mph N/A   Clear
12:35 PM 58.3 °F - 36.7 °F 45% 29.92 in 10.0 mi WSW 16.1 mph 25.3 mph N/A   Clear
12:55 PM 58.6 °F - 36.1 °F 43% 29.92 in 10.0 mi West 13.8 mph 25.3 mph N/A   Clear
1:15 PM 58.3 °F - 35.8 °F 43% 29.93 in 10.0 mi West 13.8 mph 27.6 mph N/A   Clear
1:35 PM 58.8 °F - 35.2 °F 41% 29.93 in 10.0 mi West 17.3 mph 26.5 mph N/A   Scattered Clouds
1:55 PM 58.6 °F - 36.0 °F 43% 29.94 in 10.0 mi West 15.0 mph 25.3 mph N/A   Scattered Clouds
2:15 PM 58.3 °F - 36.3 °F 44% 29.94 in 10.0 mi West 16.1 mph 27.6 mph N/A   Scattered Clouds
2:35 PM 57.6 °F - 35.8 °F 44% 29.95 in 10.0 mi West 17.3 mph 25.3 mph N/A   Clear
2:55 PM 57.2 °F - 35.6 °F 44% 29.96 in 10.0 mi West 18.4 mph 25.3 mph N/A   Clear
3:15 PM 57.2 °F - 35.8 °F 45% 29.97 in 10.0 mi West 15.0 mph 26.5 mph N/A   Clear
3:35 PM 56.8 °F - 36.1 °F 46% 29.97 in 10.0 mi West 15.0 mph 26.5 mph N/A   Clear
3:55 PM 56.3 °F - 36.5 °F 47% 29.98 in 10.0 mi West 15.0 mph 21.9 mph N/A   Clear
4:15 PM 55.4 °F - 37.0 °F 50% 29.99 in 10.0 mi West 12.7 mph 16.1 mph N/A   Clear
4:35 PM 54.3 °F - 36.9 °F 52% 29.99 in 10.0 mi West 10.4 mph 20.7 mph N/A   Clear
4:55 PM 53.2 °F - 36.9 °F 54% 30.01 in 10.0 mi West 10.4 mph 19.6 mph N/A   Clear
5:15 PM 52.2 °F - 37.4 °F 57% 30.01 in 10.0 mi West 10.4 mph 16.1 mph N/A   Clear
5:35 PM 51.8 °F - 37.4 °F 58% 30.02 in 10.0 mi West 11.5 mph 21.9 mph N/A   Clear
5:55 PM 50.7 °F - 37.6 °F 61% 30.03 in 10.0 mi West 9.2 mph - N/A   Clear
6:15 PM 50.0 °F - 37.6 °F 62% 30.04 in 10.0 mi West 10.4 mph - N/A   Clear
6:35 PM 48.9 °F - 37.9 °F 66% 30.04 in 10.0 mi West 10.4 mph - N/A   Clear
6:55 PM 49.1 °F - 37.4 °F 64% 30.05 in 10.0 mi West 10.4 mph 18.4 mph N/A   Clear
7:15 PM 48.7 °F - 36.9 °F 64% 30.06 in 10.0 mi West 12.7 mph 18.4 mph N/A   Clear
7:35 PM 48.6 °F - 36.5 °F 63% 30.06 in 10.0 mi West 10.4 mph 17.3 mph N/A   Clear
8:35 PM 46.8 °F - 36.5 °F 67% 30.08 in 10.0 mi West 9.2 mph - N/A   Scattered Clouds
8:55 PM 46.8 °F - 36.5 °F 67% 30.08 in 10.0 mi West 9.2 mph 16.1 mph N/A   Scattered Clouds
9:15 PM 46.4 °F 41.9 °F 36.1 °F 67% 30.09 in 10.0 mi West 9.2 mph - N/A   Scattered Clouds
9:35 PM 46.4 °F 41.1 °F 36.0 °F 67% 30.10 in 10.0 mi WNW 11.5 mph 16.1 mph N/A   Scattered Clouds
9:55 PM 46.0 °F 41.0 °F 35.4 °F 66% 30.11 in 10.0 mi WNW 10.4 mph 18.4 mph N/A   Scattered Clouds
10:15 PM 45.5 °F 39.6 °F 33.6 °F 63% 30.12 in 10.0 mi WNW 12.7 mph 20.7 mph N/A   Scattered Clouds
10:35 PM 44.8 °F 40.4 °F 32.2 °F 61% 30.13 in 10.0 mi WNW 8.1 mph 16.1 mph N/A   Scattered Clouds
10:55 PM 43.9 °F 37.2 °F 31.3 °F 61% 30.14 in 10.0 mi WNW 13.8 mph 21.9 mph N/A   Scattered Clouds
11:15 PM 42.8 °F 37.5 °F 29.5 °F 59% 30.15 in 10.0 mi WNW 9.2 mph 20.7 mph N/A   Clear
11:35 PM 41.9 °F 36.3 °F 28.9 °F 60% 30.15 in 10.0 mi WNW 9.2 mph 16.1 mph N/A   Clear
11:55 PM 40.8 °F 36.2 °F 28.4 °F 61% 30.16 in 10.0 mi WNW 6.9 mph - N/A   Clear